Location: Helion Bumpstead
(52.0500°N, 0.4000°E)
Time: 21:36:42
(UTC+00:00)

CZ-2C R/B - Pass Details

Date: 15 November 2025
Orbit: 664 x 773 km, 98.4° (Epoch: 14 December)

Event Time Altitude Azimuth Distance (km) Brightness Sun altitude
Rises 06:31:29 0° 2° (N) 3,208 5.5 -7.4°
Reaches altitude 10° 06:35:32 10° 330° (NNW) 2,301 4.5 -6.8°
Maximum altitude 06:37:00 11° 313° (NW) 2,220 4.3 -6.6°
Drops below altitude 10° 06:38:28 10° 296° (WNW) 2,310 4.3 -6.4°
Enters shadow 06:40:12 - 279° (W) 2,608 4.6 -6.1°
